User: anonymous   Login
Location: Unspecified
(0.0000°N, 0.0000°E)
Time: 05:19:44
(UTC+00:00)
Language:

Fuji - Orbit

View from above orbital plane
View from above orbital plane
View from above satellite
View from above satellite

Ground track
Ground track

The orbit data is extracted from the following two-line orbital elements,

1 16909U 86061B   18349.87563139 -.00000091 +00000-0 +43393-4 0  9990
2 16909 050.0161 298.0803 0011270 030.6184 061.6174 12.44468585470871
Epoch (UTC): 15 December 2018 21:00:54
Eccentricity: 0.0011270
inclination: 50.0161°
perigee height: 1479 km
apogee height: 1496 km
right ascension of ascending node: 298.0803°
argument of perigee: 30.6184°
revolutions per day: 12.44468585
mean anomaly at epoch: 61.6174°
orbit number at epoch: 47087

The dashed part of the orbit path shows where the satellite is in the earth's shadow,  

DLR